ROMMA est une association bénévole à but non lucratif. Votre soutien est indispensable : ADHERER à ROMMA ou FAIRE un DON

Chambon - (38, Isère)

Oisans (2460 m)   Longitude: 06° 10' 42" E   Latitude: 45° 01' 32" N Station partenaire n°803
 

Détail journalier du     <<     >>

Température Humidité Vent Dir Rafale Dir. rafale Neige 1 Neige 2
Heure (°C) (%) (km/h) (km/h) (cm) (cm)
01:00 -2.8414ESE17ESE162216
02:00 -0.43510ESE44S162216
03:00 -1.54112S41S162216
04:00 -1.3374S28S162216
05:00 -2.2406NNE29S162216
06:00 -2.64211NNE32NNO162216
07:00 -2.2407SSO39SSO162216
08:00 -2.2395N40NNE162216
09:00 -1.8385NNE43NNE162216
10:00 -0.9378ENE40ENE161215
11:00 -0.2385ESE46SE161215
12:00 1.4417SE50SE161215
13:00 2.04617S51SSO161215
14:00 1.16029S65SSO161213
15:00 1.26220SSE67SSO161212
16:00 0.36511NE56S161212
17:00 -0.37731S107SSO161211
18:00 0.46539SSO105SSO161211
19:00 0.36333SSO84SSO160211
20:00 0.35955SSO127SSO160210
21:00 0.05779SSO134SSO160210
22:00 0.05964SSO131SSO159210
23:00 -0.15750SSO126SSO160210
minuit -0.46443SSO93SSO160210

Graphique du 06-03-2019

 

Serveur OMMA